Regional Weather Roundup
Issued by NWS

Home | Current Version | Previous Version | Graphics & Text | Print | Product List | Glossary On
Versions: 1 2 3 4 5 6 7 8 9 10 11 12 13 14 15 16 17 18 19 20 21 22 23 24 25 26 27 28 29 30 31 32 33 34 35 36 37 38 39 40 41 42 43 44 45 46 47 48 49 50
195
ASUS45 KSLC 031210
RWRUT

UTAH REGIONAL WEATHER ROUNDUP
NATIONAL WEATHER SERVICE SALT LAKE CITY UT
600 AM MDT TUE MAY 03 2016

UTZ001>011-023>025-031300-

NORTHERN UTAH

CITY           SKY/WX    TMP DP  RH WIND       PRES   REMARKS
BRIGHAM CITY   CLEAR     41  34  75 CALM      30.22R
HILL AFB       CLEAR     45  31  58 E16       30.22R
LOGAN          CLEAR     38  33  82 E3        30.23R
OGDEN          CLEAR     44  32  62 S10       30.21R
PROVO AIRPORT  CLEAR     41  30  65 SE5       30.22S
SALT LAKE CITY CLEAR     47  35  63 SE7       30.20S
VERNAL         CLEAR     36  22  56 NW6       30.22R WCI  31
WENDOVER       CLEAR     45  36  70 CALM      30.21R
HEBER CITY     CLEAR     32  30  93 CALM      30.25S

$$

UTZ012>022-026-027-031300-

SOUTHERN/CENTRAL UTAH

CITY           SKY/WX    TMP DP  RH WIND       PRES   REMARKS
BLANDING       CLEAR     38  33  81 CALM      30.26S
BRYCE CANYON   CLEAR     27  24  89 W8        30.28R WCI  19
CEDAR CITY     CLEAR     36  33  89 S3        30.20S
DELTA          CLEAR     41  36  81 CALM      30.21R
HANKSVILLE     CLEAR     39  36  87 CALM      30.20S
MILFORD        CLEAR     35  32  88 S5        30.21R WCI  31
MOAB/CYNLANDS  CLEAR     43  36  76 CALM      30.16R
PRICE          CLEAR     39  29  67 N5        30.21S
ST GEORGE      SUNNY     54  37  54 CALM      30.15R

$$

REGIONAL REPORTS     COLORADO/ARIZONA

CITY           SKY/WX    TMP DP  RH WIND       PRES   REMARKS
CRAIG, CO      CLOUDY    27  24  89 CALM      30.27R
GRAND JUNCTION CLEAR     37  34  89 CALM      30.18S
RIFLE          CLEAR     35  29  78 CALM      30.24R
MONTROSE       CLEAR     36  30  79 SE7       30.24R WCI  30
CORTEZ         CLEAR     31  28  89 NE5       30.20S WCI  26
PAGE, AZ       CLEAR     48  39  71 CALM      30.16R
GRAND CANYON   CLEAR     39  33  79 NE9       30.22R WCI  33
KINGMAN        CLEAR     54  38  54 CALM      30.08R
FLAGSTAFF      CLEAR     32  31  96 E3        30.20R

$$

REGIONAL REPORTS    NEVADA/IDAHO/WYOMING

CITY           SKY/WX    TMP DP  RH WIND       PRES   REMARKS
LAS VEGAS, NV  CLEAR     62  42  47 S3        30.02R
ELY            MOCLDY    32  29  88 S8        30.26S WCI  25
ELKO           CLEAR     39  33  79 CALM      30.21R
POCATELLO, ID  CLEAR     37  31  78 CALM      30.22R
BURLEY         CLEAR     38  35  89 CALM      30.18R
EVANSTON, WY   CLOUDY    33  23  66 S6        30.28R WCI  28
ROCK SPRINGS   CLOUDY    34  20  56 CALM      30.27R
KEMMERER         N/A     32  21  64 N12       30.28S WCI  23

$$




USA.gov is the U.S. government's official web portal to all federal, state and local government web resources and services.